Terminal Aerodrome Forecast
Issued by NWS Milwaukee/Sullivan, WI

Home | Current Version | Previous Version | Text Only | Print | Product List | Glossary On
Versions: 1 2 3 4 5 6 7 8 9 10 11 12 13 14 15 16 17 18 19 20 21 22 23 24 25 26 27 28 29 30 31 32 33 34 35 36 37 38 39 40 41 42 43 44 45 46 47 48 49 50
000
FTUS43 KMKX 270402 AAB
TAFMSN
TAF AMD
KMSN 270402Z 2704/2724 31004KT 5SM BR SCT050 OVC200
     FM270500 32004KT P6SM SCT025 OVC050
      TEMPO 2705/2709 6SM -SN BKN025
     FM270900 32007KT P6SM OVC025
     FM271200 31008KT P6SM BKN015
     FM271700 32008KT P6SM BKN035
     FM272000 32006KT P6SM SCT020=

USA.gov is the U.S. government's official web portal to all federal, state and local government web resources and services.